SCP
0 0 0 0 0 0 0 0 0 0 0 0 0 0 0 0 0 0 0 0 0 0 0 0 1 1 1 1 0 0 0 0 0 0 0 0 0 0 0 0 0 0 0 0 0 0 0 0 0
0 0 0 0 0 0 0 0 0 0 0 0 0 0 0 0 0 0 0 0 0 0 0 0 0 1 1 1 1 0 0 0 0 0 0 0 0 0 0 0 0 0 0 0 0 0 0 0 0
0 0 0 0 0 0 0 0 0 0 0 0 0 0 0 0 0 0 0 0 0 0 -0 1 0 1 1 1 1 1 0 0 0 0 0 0 0 0 0 0 0 0 0 0 0 0 0 0 0
0 0 0 0 0 0 0 0 0 0 0 0 0 0 0 0 0 0 0 0 0 0 0 1 1 0 1 1 1 1 0 0 0 0 0 0 0 0 0 0 0 0 0 0 0 0 0 0 0
0 0 0 0 0 0 0 0 0 0 0 0 0 0 0 0 0 0 0 0 0 0 0 0 1 1 1 1 1 1 1 0 0 0 0 0 0 0 0 0 0 0 0 0 0 0 0 0 0
0 0 0 0 0 0 0 0 0 0 0 0 0 0 0 0 0 0 0 0 0 0 0 1 1 1 1 1 1 1 1 1 0 0 0 0 0 0 0 0 0 0 0 0 0 0 0 0 0
0 0 0 0 0 0 0 0 0 0 0 0 0 0 0 0 0 0 0 0 0 0 0 0 1 1 1 1 1 1 1 0 0 0 0 0 0 0 0 0 0 0 0 0 0 0 0 0 0
0 0 0 0 0 0 0 0 0 0 0 0 0 0 0 0 0 0 0 0 0 0 0 0 0 1 1 1 0 0 1 1 0 0 0 0 0 0 0 0 0 0 0 0 0 0 0 0 0
0 0 0 0 0 0 0 0 0 0 0 0 0 0 0 0 0 0 0 0 0 0 0 0 0 0 1 1 0 0 0 0 0 0 0 0 0 0 0 0 0 0 0 0 0 0 0 0 0
0 0 0 0 0 0 0 0 0 0 0 0 0 0 0 0 0 0 0 0 0 0 0 -0 0 0 0 1 1 1 1 1 1 0 0 0 0 0 0 0 0 0 0 0 0 0 0 0 0
0 0 0 0 0 0 0 0 0 0 0 0 0 0 0 0 0 0 0 0 0 0 0 -0 0 0 0 0 1 1 1 1 1 0 0 0 0 0 0 0 0 0 0 0 0 0 0 0 0
0 0 0 0 0 0 0 0 0 0 0 0 0 0 0 0 0 0 0 0 0 0 0 0 -0 0 0 0 1 1 1 1 1 1 0 0 0 0 0 0 0 0 0 0 0 0 0 0 0
0 0 0 0 0 0 0 0 0 0 0 0 0 0 0 0 0 0 0 0 0 0 0 0 -0 -0 0 0 0 1 1 1 1 1 0 0 0 0 0 0 0 0 0 0 0 0 0 0 0
0 0 0 0 0 0 0 0 0 0 0 0 0 0 0 0 0 0 0 0 0 0 -0 -0 0 -0 0 0 0 0 1 1 0 0 0 0 0 0 0 0 0 0 0 0 0 0 0 0 0
0 0 0 0 0 0 0 0 -0 -0 0 0 0 0 0 0 0 0 0 0 0 0 0 -0 -0 -0 -0 -0 0 0 0 1 0 0 0 0 0 0 0 0 0 0 0 0 0 0 0 0 0
0 0 0 0 0 0 0 0 0 0 0 0 0 0 0 0 0 0 0 0 0 0 0 -0 -0 -0 -0 0 0 0 0 0 0 0 0 0 0 0 0 0 0 0 0 0 0 0 0 0 0
0 0 0 0 0 0 0 0 0 0 0 0 0 0 0 0 0 0 0 0 0 0 0 0 -0 -0 0 -0 0 -0 0 0 0 0 0 0 0 0 0 0 0 0 0 0 0 0 0 0 0
0 0 0 0 0 0 0 0 0 0 0 0 0 0 0 0 0 0 0 0 0 0 0 0 -0 -0 0 0 0 0 0 0 0 0 0 0 0 0 0 0 0 0 0 0 0 0 0 0 0
0 0 0 0 0 0 0 0 0 0 0 0 0 0 0 0 0 0 0 0 0 0 0 0 0 0 -0 0 0 0 0 0 0 0 0 0 0 0 0 0 0 0 0 0 0 0 0 0 0
0 0 0 0 0 0 0 0 0 0 0 0 0 0 0 0 0 0 0 0 0 0 0 0 0 0 -0 0 0 0 0 0 0 0 0 0 0 0 0 0 0 0 0 0 0 0 0 0 0
0 0 0 0 0 0 0 0 0 0 0 0 0 0 0 0 0 0 0 0 0 0 0 0 0 0 0 1 0 0 0 0 0 0 0 0 0 0 0 0 0 0 0 0 0 0 0 0 0
0 0 -0 -0 0 0 0 0 0 0 0 0 0 -0 0 0 0 0 0 0 0 0 0 0 0 0 0 0 0 0 0 0 0 0 0 0 0 0 0 0 0 0 0 0 0 0 0 0 0
0 0 -0 0 0 0 0 -0 0 0 -0 -0 -0 -0 -0 0 0 0 0 0 0 0 0 0 0 0 0 1 0 0 0 0 0 0 0 0 0 0 0 0 0 0 0 0 0 0 0 0 0
-0 0 -0 -0 -0 0 -0 -0 -0 -0 -0 -0 -0 -0 -0 0 0 0 0 0 0 0 0 0 0 0 0 0 0 0 0 0 0 0 0 0 0 0 0 0 0 0 0 0 0 0 0 0 0
0 0 0 0 0 -0 -0 -0 0 -0 -0 -0 -0 -0 -0 0 0 0 0 0 0 0 0 0 0 0 0 0 0 0 0 0 0 0 0 0 0 0 0 0 0 0 0 0 0 0 0 0 0
0 0 0 -0 -0 0 -0 0 -0 -0 -0 -0 -0 -0 -0 -0 -0 -0 -0 0 0 0 0 0 0 0 0 0 0 0 0 0 0 0 0 0 0 0 0 0 0 0 0 0 0 0 0 0 0
0 0 0 0 0 0 0 -0 -0 -0 -0 -0 -0 -0 -0 -0 -0 -0 -0 0 0 0 0 0 0 0 0 0 0 0 0 0 0 0 0 0 0 0 0 0 0 0 0 0 0 0 0 0 0
0 0 0 0 0 0 0 0 0 -0 -0 -0 -0 -0 -0 -0 0 0 0 0 0 0 0 0 0 0 0 0 0 0 0 0 0 -0 -0 0 0 0 0 0 0 0 0 0 0 0 0 0 0
0 0 0 0 0 0 0 0 0 -0 -0 -0 -0 -0 -0 0 0 0 0 0 0 0 0 0 0 -0 0 0 0 0 0 0 0 0 0 0 -0 0 0 0 0 0 0 0 0 0 0 0 0
0 0 0 0 0 0 0 0 0 -0 -0 -0 -0 -0 0 0 0 0 0 0 0 0 0 0 0 0 -0 0 0 0 0 0 -0 -0 -0 -0 -0 0 -0 0 0 0 0 0 0 0 0 0 0
Wind_Speed_500mb
7 12 7 14 15 17 39 40 33 28 37 32 28 17 17 33 17 7 7 14 14 16 27 40 53 59 65 62 58 55 52 50 47 45 42 39 40 40 40 36 34 31 30 27 31 36 37 32 29
2 3 11 19 17 32 36 39 42 30 36 9 13 23 27 27 27 10 2 26 25 16 23 49 55 63 63 63 60 58 55 52 49 46 43 43 42 42 40 38 39 38 35 28 35 37 34 32 30
6 9 18 10 28 40 40 38 31 35 35 42 32 23 24 13 11 9 24 30 26 18 20 44 55 63 63 59 60 59 56 54 51 47 45 43 44 43 43 39 43 44 43 43 37 35 34 33 30
3 10 17 20 45 41 33 24 20 17 27 24 31 25 33 8 9 19 29 31 21 14 20 39 57 63 67 63 62 60 58 54 52 48 45 45 45 44 43 40 43 45 43 46 43 35 35 34 30
9 15 20 33 46 44 38 22 36 23 26 23 16 35 24 8 11 21 30 30 23 12 22 34 59 57 66 65 63 59 58 56 54 49 45 43 42 44 42 42 43 44 42 45 47 43 38 36 31
18 13 25 34 44 41 27 14 24 29 42 44 29 32 40 12 20 25 30 33 23 14 24 35 56 59 64 67 64 62 61 58 54 49 45 44 42 42 39 40 45 44 41 41 39 40 40 36 30
24 24 38 47 48 44 36 10 16 34 35 30 25 20 22 22 21 28 29 29 21 11 15 32 45 58 61 67 65 63 61 60 56 54 49 48 48 45 43 41 41 40 41 40 38 40 38 33 29
20 13 39 38 37 47 19 9 15 24 33 29 23 15 23 32 34 33 32 29 25 18 22 32 41 59 65 68 67 65 63 60 59 57 54 52 49 46 46 44 43 41 39 37 37 37 35 32 31
9 15 28 39 41 42 37 19 29 26 35 43 47 52 49 46 50 42 38 35 31 25 30 36 41 55 65 70 72 69 66 63 61 58 55 52 50 50 48 47 42 41 41 37 35 32 34 32 31
14 19 29 29 24 30 34 36 37 40 44 51 49 48 49 50 45 42 47 42 39 37 31 38 37 47 55 75 70 76 71 69 66 63 61 57 53 50 48 47 45 45 40 39 35 34 33 34 30
13 24 30 35 34 36 41 45 44 41 46 51 54 46 39 41 43 47 51 48 42 41 44 45 41 45 35 59 72 77 79 75 73 71 70 65 57 51 52 50 48 45 43 42 39 37 37 37 28
21 32 37 40 42 41 40 49 49 51 62 55 58 58 61 59 55 49 49 54 45 44 43 47 55 41 38 33 70 80 83 82 80 78 73 70 59 58 58 54 54 48 48 38 42 40 38 32 31
33 37 45 44 43 49 52 50 54 60 62 62 63 66 67 65 58 52 51 51 50 45 41 53 46 56 48 31 42 79 88 87 84 81 75 70 65 65 58 56 59 53 48 40 42 39 41 37 35
26 37 41 45 50 55 50 51 56 55 56 55 59 64 61 59 55 53 48 48 46 40 39 53 44 53 57 47 37 55 84 82 86 73 72 68 66 60 66 60 59 57 48 45 44 47 39 37 32
26 36 40 41 47 34 42 37 42 56 43 42 43 48 53 54 51 51 47 46 41 41 40 46 41 41 56 58 46 35 77 90 76 89 75 73 64 57 67 64 57 57 54 49 47 43 37 38 30
35 36 30 12 16 31 26 42 43 37 29 37 42 44 48 47 49 44 37 36 38 39 37 36 38 33 44 58 50 48 46 83 88 72 73 72 66 61 67 66 63 55 59 51 54 41 38 42 30
19 20 32 45 34 34 22 33 31 36 49 55 56 58 52 49 42 39 36 33 37 36 37 33 31 34 34 37 42 45 53 93 84 84 74 68 63 61 65 66 62 58 61 59 54 53 48 43 34
34 40 41 44 39 31 32 44 44 44 46 47 44 45 46 46 45 34 34 39 37 37 36 35 33 31 32 33 42 44 27 50 73 83 75 75 68 60 60 63 63 59 60 58 57 53 54 43 35
31 37 47 48 46 28 29 33 35 29 28 33 40 38 35 39 42 44 42 39 37 34 34 34 33 32 40 36 32 38 32 51 49 56 68 68 58 52 60 60 61 58 61 62 59 59 42 53 48
44 49 47 49 32 17 28 39 34 4 9 27 36 36 37 37 36 34 36 35 35 31 31 33 34 39 44 34 33 37 49 41 48 62 63 61 52 38 52 58 61 59 62 62 59 57 59 53 50
42 47 34 41 45 51 38 39 7 9 19 45 44 42 40 39 35 35 31 31 32 30 29 29 34 35 39 28 26 41 52 55 45 57 65 65 55 48 43 61 60 57 60 60 58 55 55 57 53
40 35 49 51 26 11 7 3 26 26 38 42 55 61 58 51 39 35 33 27 30 27 25 32 25 27 33 38 30 48 49 43 49 48 54 65 61 59 50 49 50 54 51 59 61 55 47 47 54
31 54 47 43 28 18 29 10 18 32 51 58 59 77 70 58 40 35 31 26 26 24 28 26 30 28 32 32 25 48 52 44 44 42 65 79 67 64 58 56 45 45 43 39 46 50 49 45 47
53 42 27 12 10 6 22 8 24 27 43 55 66 90 96 34 14 23 26 26 29 24 23 18 22 24 32 36 32 33 33 37 35 48 60 66 64 72 63 59 51 46 45 43 40 42 46 46 54
41 37 7 4 7 10 19 15 16 42 42 44 52 82 74 46 19 12 11 11 10 10 8 19 27 45 43 45 33 31 29 14 37 52 42 53 63 56 66 57 56 58 57 46 49 53 56 47 55
29 22 10 12 11 11 19 15 8 45 52 62 57 65 82 77 66 50 31 19 17 13 23 31 45 51 43 48 41 29 35 28 24 12 36 45 49 40 44 50 52 47 47 45 47 42 34 18 14
21 19 20 10 13 6 7 14 14 56 50 65 79 90 86 77 67 56 45 37 32 35 43 53 69 74 62 58 53 50 49 41 33 44 36 36 51 40 41 30 25 25 32 24 24 19 21 17 22
16 20 7 7 14 10 10 11 18 50 49 53 57 75 80 78 74 62 58 42 48 53 54 71 81 76 75 76 73 70 67 68 58 62 61 63 65 62 52 43 46 38 38 40 35 36 39 35 37
25 14 10 4 9 10 11 7 15 32 36 38 46 66 70 72 71 66 54 57 57 59 71 92 94 83 88 91 92 95 93 86 74 70 72 70 69 65 54 58 61 52 44 50 48 47 44 43 44
40 24 10 8 9 6 8 7 22 31 34 42 49 61 67 70 71 67 58 59 60 58 83 104 97 93 88 92 95 100 101 95 87 84 78 73 76 76 75 71 71 67 64 60 58 57 52 49 47
Wind_Direction_500mb
321 301 227 192 229 232 251 237 253 244 252 262 251 250 248 244 227 247 95 24 350 320 217 236 211 204 199 196 195 194 193 190 191 188 189 188 181 176 172 163 154 155 156 169 172 155 148 154 159
27 274 192 235 240 239 246 237 247 240 245 229 258 241 252 245 236 259 339 325 330 318 218 235 217 203 199 200 199 198 197 193 194 191 192 190 188 184 179 171 164 163 170 171 162 156 166 174 169
345 203 227 226 237 246 264 268 289 226 235 259 240 247 269 258 84 35 341 332 331 319 216 232 223 204 200 201 200 201 199 196 195 195 195 192 193 190 187 184 178 176 180 163 160 176 183 182 178
262 209 250 245 251 259 275 299 321 295 246 262 265 266 240 93 40 351 338 337 336 314 224 237 223 210 203 203 203 202 200 195 193 197 196 194 197 199 196 188 181 179 183 171 172 181 191 189 187
266 248 247 249 256 267 274 288 288 272 260 251 220 249 245 130 26 346 346 346 337 314 250 249 222 217 208 204 204 201 198 195 198 198 199 201 201 194 195 189 185 187 190 184 180 192 195 193 189
267 272 252 255 259 265 272 299 300 283 267 261 260 273 255 149 11 345 341 343 333 309 236 248 228 220 212 209 206 203 200 199 201 200 197 198 197 196 191 191 186 185 185 182 185 188 191 189 192
256 262 260 273 275 273 282 286 269 274 270 263 304 278 258 230 355 338 337 336 314 256 262 241 238 219 217 214 209 205 203 203 203 202 200 201 203 200 196 191 184 184 191 185 188 188 192 191 191
266 277 266 267 272 268 290 328 301 280 276 276 290 259 251 263 331 323 323 324 320 270 241 231 237 229 221 215 212 208 202 204 206 206 203 205 202 203 196 192 188 186 194 194 194 191 193 195 192
255 252 260 265 269 275 274 276 274 271 272 275 273 272 276 287 306 309 310 310 315 275 254 237 231 222 222 216 216 213 208 206 207 206 204 204 202 203 202 195 189 192 195 201 202 195 194 199 198
236 248 258 282 300 294 283 275 276 275 272 273 272 269 271 279 279 294 294 296 301 306 272 267 240 238 218 218 217 212 213 210 208 205 202 200 203 207 208 198 194 195 195 202 209 204 203 201 207
231 250 276 283 278 274 275 275 274 274 271 270 275 284 285 280 281 285 285 282 287 296 291 298 261 239 246 218 212 214 212 212 207 204 202 200 205 210 211 206 199 196 198 205 205 208 210 205 201
270 259 273 283 285 278 274 281 274 267 271 276 275 276 278 278 278 277 279 280 281 286 289 290 289 275 257 234 218 221 213 213 206 205 202 197 201 210 212 211 202 198 204 203 209 213 214 209 208
272 277 282 284 284 277 279 271 274 274 279 274 273 273 274 276 275 273 273 275 279 282 284 286 290 287 253 241 223 220 223 215 210 204 199 196 202 210 213 211 208 199 201 204 211 218 220 208 208
302 300 292 286 281 279 279 278 277 272 267 270 267 269 271 273 274 270 266 271 276 277 280 291 286 291 284 268 251 202 228 223 205 198 195 199 209 212 214 214 210 202 197 210 210 214 213 213 213
296 290 288 278 272 267 284 279 260 266 267 263 264 268 271 269 270 269 262 264 271 276 281 289 284 278 281 284 267 231 220 223 197 213 206 203 209 212 211 217 218 212 200 212 214 210 207 225 221
272 270 280 264 264 296 247 279 285 286 279 283 283 275 274 273 267 268 266 262 271 276 280 287 282 268 277 289 278 268 257 213 225 198 209 209 211 214 214 217 222 215 208 213 214 215 210 222 223
282 282 302 297 296 290 252 284 292 299 294 291 281 274 274 272 271 265 259 269 275 273 276 281 282 260 252 265 277 283 269 223 229 212 210 211 213 217 219 221 223 219 218 218 218 222 228 229 226
310 301 298 296 306 291 275 277 285 300 292 291 290 284 280 272 265 253 262 277 272 270 270 275 278 257 235 247 267 270 276 211 218 213 212 207 207 212 215 224 226 222 218 226 220 222 227 228 230
302 290 286 287 294 289 273 277 290 327 12 4 353 334 306 283 272 261 267 272 268 266 267 273 276 262 228 226 262 259 247 225 226 213 200 203 202 203 221 225 228 225 226 229 224 223 225 236 232
316 305 295 293 320 313 291 288 297 95 43 24 359 346 332 317 314 272 267 269 266 263 261 265 276 265 230 215 261 265 235 235 235 238 238 207 210 211 222 229 230 230 230 233 234 228 231 236 241
323 305 316 317 317 304 285 278 207 4 27 359 348 338 329 315 301 289 281 272 264 258 255 266 270 257 227 225 255 244 231 228 229 204 206 236 218 223 227 233 232 234 234 232 238 236 238 238 246
315 334 311 301 299 271 4 49 40 12 358 351 348 341 328 313 295 278 271 265 258 253 254 262 250 235 223 215 249 242 219 212 218 221 223 238 231 219 227 239 239 241 242 239 240 245 244 247 251
307 320 306 288 264 265 256 231 19 16 358 350 346 339 328 309 280 270 266 259 250 248 252 256 223 240 213 213 215 217 212 211 233 239 232 229 215 221 213 241 237 237 241 243 238 247 250 250 253
337 322 297 279 185 167 28 252 38 15 354 344 340 337 331 346 283 272 268 256 241 235 236 238 236 223 190 185 183 192 209 210 219 233 227 229 232 223 224 235 237 242 250 246 242 239 246 255 257
346 349 345 65 42 34 359 67 66 12 358 350 337 330 342 13 12 328 294 251 237 257 272 198 200 136 136 167 151 108 95 167 204 204 202 204 196 210 207 219 224 222 226 231 239 239 243 254 249
346 1 15 344 3 343 31 10 88 12 355 349 341 345 6 8 19 25 30 52 112 142 155 164 134 139 148 140 138 132 114 88 108 116 192 168 174 180 188 191 209 215 212 218 217 220 218 187 190
334 5 312 289 221 264 28 8 148 349 351 350 355 359 359 3 14 29 46 74 104 120 127 129 120 115 111 115 116 112 109 109 117 127 136 126 116 133 136 145 139 152 124 117 109 106 85 68 83
11 1 16 334 352 21 68 56 340 346 343 345 351 350 352 0 14 29 43 77 96 103 123 114 112 113 111 112 110 105 102 102 100 108 110 108 107 108 113 108 110 98 105 99 100 93 101 100 90
14 21 354 261 14 336 329 47 5 349 346 344 342 347 353 360 11 27 45 71 90 98 100 106 111 117 110 110 114 113 110 106 109 107 108 106 106 101 101 108 107 107 105 98 98 96 88 81 78
37 14 358 342 5 18 272 63 31 6 354 353 348 353 358 7 17 32 50 69 83 79 98 105 108 115 111 112 111 107 107 109 110 110 108 107 104 103 103 100 98 97 92 88 85 85 85 79 72
Wind_Speed_850mb
7 12 7 14 15 17 39 40 33 28 37 32 28 17 17 33 17 7 7 14 14 16 27 40 53 59 65 62 58 55 52 50 47 45 42 39 40 40 40 36 34 31 30 27 31 36 37 32 29
2 3 11 19 17 32 36 39 42 30 36 9 13 23 27 27 27 10 2 26 25 16 23 49 55 63 63 63 60 58 55 52 49 46 43 43 42 42 40 38 39 38 35 28 35 37 34 32 30
6 9 18 10 28 40 40 38 31 35 35 42 32 23 24 13 11 9 24 30 26 18 20 44 55 63 63 59 60 59 56 54 51 47 45 43 44 43 43 39 43 44 43 43 37 35 34 33 30
3 10 17 20 45 41 33 24 20 17 27 24 31 25 33 8 9 19 29 31 21 14 20 39 57 63 67 63 62 60 58 54 52 48 45 45 45 44 43 40 43 45 43 46 43 35 35 34 30
9 15 20 33 46 44 38 22 36 23 26 23 16 35 24 8 11 21 30 30 23 12 22 34 59 57 66 65 63 59 58 56 54 49 45 43 42 44 42 42 43 44 42 45 47 43 38 36 31
18 13 25 34 44 41 27 14 24 29 42 44 29 32 40 12 20 25 30 33 23 14 24 35 56 59 64 67 64 62 61 58 54 49 45 44 42 42 39 40 45 44 41 41 39 40 40 36 30
24 24 38 47 48 44 36 10 16 34 35 30 25 20 22 22 21 28 29 29 21 11 15 32 45 58 61 67 65 63 61 60 56 54 49 48 48 45 43 41 41 40 41 40 38 40 38 33 29
20 13 39 38 37 47 19 9 15 24 33 29 23 15 23 32 34 33 32 29 25 18 22 32 41 59 65 68 67 65 63 60 59 57 54 52 49 46 46 44 43 41 39 37 37 37 35 32 31
9 15 28 39 41 42 37 19 29 26 35 43 47 52 49 46 50 42 38 35 31 25 30 36 41 55 65 70 72 69 66 63 61 58 55 52 50 50 48 47 42 41 41 37 35 32 34 32 31
14 19 29 29 24 30 34 36 37 40 44 51 49 48 49 50 45 42 47 42 39 37 31 38 37 47 55 75 70 76 71 69 66 63 61 57 53 50 48 47 45 45 40 39 35 34 33 34 30
13 24 30 35 34 36 41 45 44 41 46 51 54 46 39 41 43 47 51 48 42 41 44 45 41 45 35 59 72 77 79 75 73 71 70 65 57 51 52 50 48 45 43 42 39 37 37 37 28
21 32 37 40 42 41 40 49 49 51 62 55 58 58 61 59 55 49 49 54 45 44 43 47 55 41 38 33 70 80 83 82 80 78 73 70 59 58 58 54 54 48 48 38 42 40 38 32 31
33 37 45 44 43 49 52 50 54 60 62 62 63 66 67 65 58 52 51 51 50 45 41 53 46 56 48 31 42 79 88 87 84 81 75 70 65 65 58 56 59 53 48 40 42 39 41 37 35
26 37 41 45 50 55 50 51 56 55 56 55 59 64 61 59 55 53 48 48 46 40 39 53 44 53 57 47 37 55 84 82 86 73 72 68 66 60 66 60 59 57 48 45 44 47 39 37 32
26 36 40 41 47 34 42 37 42 56 43 42 43 48 53 54 51 51 47 46 41 41 40 46 41 41 56 58 46 35 77 90 76 89 75 73 64 57 67 64 57 57 54 49 47 43 37 38 30
35 36 30 12 16 31 26 42 43 37 29 37 42 44 48 47 49 44 37 36 38 39 37 36 38 33 44 58 50 48 46 83 88 72 73 72 66 61 67 66 63 55 59 51 54 41 38 42 30
19 20 32 45 34 34 22 33 31 36 49 55 56 58 52 49 42 39 36 33 37 36 37 33 31 34 34 37 42 45 53 93 84 84 74 68 63 61 65 66 62 58 61 59 54 53 48 43 34
34 40 41 44 39 31 32 44 44 44 46 47 44 45 46 46 45 34 34 39 37 37 36 35 33 31 32 33 42 44 27 50 73 83 75 75 68 60 60 63 63 59 60 58 57 53 54 43 35
31 37 47 48 46 28 29 33 35 29 28 33 40 38 35 39 42 44 42 39 37 34 34 34 33 32 40 36 32 38 32 51 49 56 68 68 58 52 60 60 61 58 61 62 59 59 42 53 48
44 49 47 49 32 17 28 39 34 4 9 27 36 36 37 37 36 34 36 35 35 31 31 33 34 39 44 34 33 37 49 41 48 62 63 61 52 38 52 58 61 59 62 62 59 57 59 53 50
42 47 34 41 45 51 38 39 7 9 19 45 44 42 40 39 35 35 31 31 32 30 29 29 34 35 39 28 26 41 52 55 45 57 65 65 55 48 43 61 60 57 60 60 58 55 55 57 53
40 35 49 51 26 11 7 3 26 26 38 42 55 61 58 51 39 35 33 27 30 27 25 32 25 27 33 38 30 48 49 43 49 48 54 65 61 59 50 49 50 54 51 59 61 55 47 47 54
31 54 47 43 28 18 29 10 18 32 51 58 59 77 70 58 40 35 31 26 26 24 28 26 30 28 32 32 25 48 52 44 44 42 65 79 67 64 58 56 45 45 43 39 46 50 49 45 47
53 42 27 12 10 6 22 8 24 27 43 55 66 90 96 34 14 23 26 26 29 24 23 18 22 24 32 36 32 33 33 37 35 48 60 66 64 72 63 59 51 46 45 43 40 42 46 46 54
41 37 7 4 7 10 19 15 16 42 42 44 52 82 74 46 19 12 11 11 10 10 8 19 27 45 43 45 33 31 29 14 37 52 42 53 63 56 66 57 56 58 57 46 49 53 56 47 55
29 22 10 12 11 11 19 15 8 45 52 62 57 65 82 77 66 50 31 19 17 13 23 31 45 51 43 48 41 29 35 28 24 12 36 45 49 40 44 50 52 47 47 45 47 42 34 18 14
21 19 20 10 13 6 7 14 14 56 50 65 79 90 86 77 67 56 45 37 32 35 43 53 69 74 62 58 53 50 49 41 33 44 36 36 51 40 41 30 25 25 32 24 24 19 21 17 22
16 20 7 7 14 10 10 11 18 50 49 53 57 75 80 78 74 62 58 42 48 53 54 71 81 76 75 76 73 70 67 68 58 62 61 63 65 62 52 43 46 38 38 40 35 36 39 35 37
25 14 10 4 9 10 11 7 15 32 36 38 46 66 70 72 71 66 54 57 57 59 71 92 94 83 88 91 92 95 93 86 74 70 72 70 69 65 54 58 61 52 44 50 48 47 44 43 44
40 24 10 8 9 6 8 7 22 31 34 42 49 61 67 70 71 67 58 59 60 58 83 104 97 93 88 92 95 100 101 95 87 84 78 73 76 76 75 71 71 67 64 60 58 57 52 49 47
Wind_Direction_850mb
321 301 227 192 229 232 251 237 253 244 252 262 251 250 248 244 227 247 95 24 350 320 217 236 211 204 199 196 195 194 193 190 191 188 189 188 181 176 172 163 154 155 156 169 172 155 148 154 159
27 274 192 235 240 239 246 237 247 240 245 229 258 241 252 245 236 259 339 325 330 318 218 235 217 203 199 200 199 198 197 193 194 191 192 190 188 184 179 171 164 163 170 171 162 156 166 174 169
345 203 227 226 237 246 264 268 289 226 235 259 240 247 269 258 84 35 341 332 331 319 216 232 223 204 200 201 200 201 199 196 195 195 195 192 193 190 187 184 178 176 180 163 160 176 183 182 178
262 209 250 245 251 259 275 299 321 295 246 262 265 266 240 93 40 351 338 337 336 314 224 237 223 210 203 203 203 202 200 195 193 197 196 194 197 199 196 188 181 179 183 171 172 181 191 189 187
266 248 247 249 256 267 274 288 288 272 260 251 220 249 245 130 26 346 346 346 337 314 250 249 222 217 208 204 204 201 198 195 198 198 199 201 201 194 195 189 185 187 190 184 180 192 195 193 189
267 272 252 255 259 265 272 299 300 283 267 261 260 273 255 149 11 345 341 343 333 309 236 248 228 220 212 209 206 203 200 199 201 200 197 198 197 196 191 191 186 185 185 182 185 188 191 189 192
256 262 260 273 275 273 282 286 269 274 270 263 304 278 258 230 355 338 337 336 314 256 262 241 238 219 217 214 209 205 203 203 203 202 200 201 203 200 196 191 184 184 191 185 188 188 192 191 191
266 277 266 267 272 268 290 328 301 280 276 276 290 259 251 263 331 323 323 324 320 270 241 231 237 229 221 215 212 208 202 204 206 206 203 205 202 203 196 192 188 186 194 194 194 191 193 195 192
255 252 260 265 269 275 274 276 274 271 272 275 273 272 276 287 306 309 310 310 315 275 254 237 231 222 222 216 216 213 208 206 207 206 204 204 202 203 202 195 189 192 195 201 202 195 194 199 198
236 248 258 282 300 294 283 275 276 275 272 273 272 269 271 279 279 294 294 296 301 306 272 267 240 238 218 218 217 212 213 210 208 205 202 200 203 207 208 198 194 195 195 202 209 204 203 201 207
231 250 276 283 278 274 275 275 274 274 271 270 275 284 285 280 281 285 285 282 287 296 291 298 261 239 246 218 212 214 212 212 207 204 202 200 205 210 211 206 199 196 198 205 205 208 210 205 201
270 259 273 283 285 278 274 281 274 267 271 276 275 276 278 278 278 277 279 280 281 286 289 290 289 275 257 234 218 221 213 213 206 205 202 197 201 210 212 211 202 198 204 203 209 213 214 209 208
272 277 282 284 284 277 279 271 274 274 279 274 273 273 274 276 275 273 273 275 279 282 284 286 290 287 253 241 223 220 223 215 210 204 199 196 202 210 213 211 208 199 201 204 211 218 220 208 208
302 300 292 286 281 279 279 278 277 272 267 270 267 269 271 273 274 270 266 271 276 277 280 291 286 291 284 268 251 202 228 223 205 198 195 199 209 212 214 214 210 202 197 210 210 214 213 213 213
296 290 288 278 272 267 284 279 260 266 267 263 264 268 271 269 270 269 262 264 271 276 281 289 284 278 281 284 267 231 220 223 197 213 206 203 209 212 211 217 218 212 200 212 214 210 207 225 221
272 270 280 264 264 296 247 279 285 286 279 283 283 275 274 273 267 268 266 262 271 276 280 287 282 268 277 289 278 268 257 213 225 198 209 209 211 214 214 217 222 215 208 213 214 215 210 222 223
282 282 302 297 296 290 252 284 292 299 294 291 281 274 274 272 271 265 259 269 275 273 276 281 282 260 252 265 277 283 269 223 229 212 210 211 213 217 219 221 223 219 218 218 218 222 228 229 226
310 301 298 296 306 291 275 277 285 300 292 291 290 284 280 272 265 253 262 277 272 270 270 275 278 257 235 247 267 270 276 211 218 213 212 207 207 212 215 224 226 222 218 226 220 222 227 228 230
302 290 286 287 294 289 273 277 290 327 12 4 353 334 306 283 272 261 267 272 268 266 267 273 276 262 228 226 262 259 247 225 226 213 200 203 202 203 221 225 228 225 226 229 224 223 225 236 232
316 305 295 293 320 313 291 288 297 95 43 24 359 346 332 317 314 272 267 269 266 263 261 265 276 265 230 215 261 265 235 235 235 238 238 207 210 211 222 229 230 230 230 233 234 228 231 236 241
323 305 316 317 317 304 285 278 207 4 27 359 348 338 329 315 301 289 281 272 264 258 255 266 270 257 227 225 255 244 231 228 229 204 206 236 218 223 227 233 232 234 234 232 238 236 238 238 246
315 334 311 301 299 271 4 49 40 12 358 351 348 341 328 313 295 278 271 265 258 253 254 262 250 235 223 215 249 242 219 212 218 221 223 238 231 219 227 239 239 241 242 239 240 245 244 247 251
307 320 306 288 264 265 256 231 19 16 358 350 346 339 328 309 280 270 266 259 250 248 252 256 223 240 213 213 215 217 212 211 233 239 232 229 215 221 213 241 237 237 241 243 238 247 250 250 253
337 322 297 279 185 167 28 252 38 15 354 344 340 337 331 346 283 272 268 256 241 235 236 238 236 223 190 185 183 192 209 210 219 233 227 229 232 223 224 235 237 242 250 246 242 239 246 255 257
346 349 345 65 42 34 359 67 66 12 358 350 337 330 342 13 12 328 294 251 237 257 272 198 200 136 136 167 151 108 95 167 204 204 202 204 196 210 207 219 224 222 226 231 239 239 243 254 249
346 1 15 344 3 343 31 10 88 12 355 349 341 345 6 8 19 25 30 52 112 142 155 164 134 139 148 140 138 132 114 88 108 116 192 168 174 180 188 191 209 215 212 218 217 220 218 187 190
334 5 312 289 221 264 28 8 148 349 351 350 355 359 359 3 14 29 46 74 104 120 127 129 120 115 111 115 116 112 109 109 117 127 136 126 116 133 136 145 139 152 124 117 109 106 85 68 83
11 1 16 334 352 21 68 56 340 346 343 345 351 350 352 0 14 29 43 77 96 103 123 114 112 113 111 112 110 105 102 102 100 108 110 108 107 108 113 108 110 98 105 99 100 93 101 100 90
14 21 354 261 14 336 329 47 5 349 346 344 342 347 353 360 11 27 45 71 90 98 100 106 111 117 110 110 114 113 110 106 109 107 108 106 106 101 101 108 107 107 105 98 98 96 88 81 78
37 14 358 342 5 18 272 63 31 6 354 353 348 353 358 7 17 32 50 69 83 79 98 105 108 115 111 112 111 107 107 109 110 110 108 107 104 103 103 100 98 97 92 88 85 85 85 79 72